2023/12/14 00:00:00, 0.0, 2.0
2023/12/14 00:10:00, 0.0, 2.3
2023/12/14 00:20:00, 0.0, 2.2
2023/12/14 00:30:00, 0.0, 2.3
2023/12/14 00:40:00, 0.0, 2.5
2023/12/14 00:50:00, 0.0, 2.7
2023/12/14 01:00:00, 0.0, 3.0
2023/12/14 01:10:00, 0.1, 3.6
2023/12/14 01:20:00, 0.1, 3.9
2023/12/14 01:30:00, 0.1, 2.7
2023/12/14 01:40:00, 0.0, 2.8
2023/12/14 01:50:00, 0.0, 2.9
2023/12/14 02:00:00, 0.0, 2.5
2023/12/14 02:10:00, 0.0, 2.3
2023/12/14 02:20:00, 0.1, 1.9
2023/12/14 02:30:00, 0.2, 2.0
2023/12/14 02:40:00, 0.2, 1.2
2023/12/14 02:50:00, 0.2, 1.3
2023/12/14 03:00:00, 0.2, 1.4
2023/12/14 03:10:00, 0.3, 1.1
2023/12/14 03:20:00, 0.2, 1.2
2023/12/14 03:30:00, 0.2, 1.4
2023/12/14 03:40:00, 0.2, 1.3
2023/12/14 03:50:00, 0.2, 1.3
2023/12/14 04:00:00, 0.1, 1.1
2023/12/14 04:10:00, 0.2, 0.8
2023/12/14 04:20:00, 0.2, 0.5
2023/12/14 04:30:00, 0.2, 0.5
2023/12/14 04:40:00, 0.2, 0.7
2023/12/14 04:50:00, 0.1, 1.2
2023/12/14 05:00:00, 0.1, 0.9
2023/12/14 05:10:00, 0.1, 0.7
2023/12/14 05:20:00, 0.1, 0.5
2023/12/14 05:30:00, 0.2, 0.5
2023/12/14 05:40:00, 0.1, 0.5
2023/12/14 05:50:00, 0.1, 0.4
2023/12/14 06:00:00, 0.1, 0.8
2023/12/14 06:10:00, 0.1, 0.6
2023/12/14 06:20:00, 0.1, 0.4
2023/12/14 06:30:00, 0.1, 0.7
2023/12/14 06:40:00, 0.1, 0.6
2023/12/14 06:50:00, 0.1, 0.7
2023/12/14 07:00:00, 0.1, 0.6
2023/12/14 07:10:00, 0.1, 0.7
2023/12/14 07:20:00, 0.1, 1.0
2023/12/14 07:30:00, 0.2, 1.6
2023/12/14 07:40:00, 0.2, 1.6
2023/12/14 07:50:00, 0.2, 2.0
2023/12/14 08:00:00, 0.2, 2.2
2023/12/14 08:10:00, 0.2, 2.5
2023/12/14 08:20:00, 0.1, 2.7
2023/12/14 08:30:00, 0.0, 3.0
2023/12/14 08:40:00, 0.0, 4.0
2023/12/14 08:50:00, 0.0, 5.0
2023/12/14 09:00:00, 0.1, 7.4
2023/12/14 09:10:00, 0.4,13.9
2023/12/14 09:20:00, 0.3,13.1
2023/12/14 09:30:00, 0.5,19.8
2023/12/14 09:40:00, 0.6,21.9
2023/12/14 09:50:00, 0.4,16.2
2023/12/14 10:00:00, 0.2,14.8
2023/12/14 10:10:00, 0.2,14.1
2023/12/14 10:20:00, 0.3,15.0
2023/12/14 10:30:00, 0.2,13.5
2023/12/14 10:40:00, 0.6,20.1
2023/12/14 10:50:00, 0.6,18.4
2023/12/14 11:00:00, 0.6,21.4
2023/12/14 11:10:00, 0.5,22.0
2023/12/14 11:20:00, 0.3,19.2
2023/12/14 11:30:00, 0.3,16.3
2023/12/14 11:40:00, 0.1,17.2
2023/12/14 11:50:00, 0.5,18.3
2023/12/14 12:00:00, 0.1,13.1
2023/12/14 12:10:00, 0.0,12.8
2023/12/14 12:20:00, 0.1,12.2
2023/12/14 12:30:00, 0.1,11.9
2023/12/14 12:40:00, 0.1,12.1
2023/12/14 12:50:00, 0.1,12.2
2023/12/14 13:00:00, 0.1,11.8
2023/12/14 13:10:00, 0.1,12.0
2023/12/14 13:20:00, 0.1,12.2
2023/12/14 13:30:00, 0.1,12.4
2023/12/14 13:40:00, 0.1,12.4
2023/12/14 13:50:00, 0.1,13.5
2023/12/14 14:00:00, 0.1,12.9
2023/12/14 14:10:00, 0.0,12.0
2023/12/14 14:20:00, 0.0,11.6
2023/12/14 14:30:00, 0.0,11.4
2023/12/14 14:40:00, 0.0,11.2
2023/12/14 14:50:00, 0.0,11.5
2023/12/14 15:00:00, 0.0,11.2
2023/12/14 15:10:00, 0.0,11.1
2023/12/14 15:20:00, 0.0,10.7
2023/12/14 15:30:00, 0.0,10.6
2023/12/14 15:40:00, 0.0,10.3
2023/12/14 15:50:00, 0.0,10.2
2023/12/14 16:00:00, 0.0,10.0
2023/12/14 16:10:00, 0.0, 9.5
2023/12/14 16:20:00, 0.0, 9.8
2023/12/14 16:30:00, 0.0, 9.5
2023/12/14 16:40:00, 0.0, 9.1
2023/12/14 16:50:00, 0.0, 8.8
2023/12/14 17:00:00, 0.0, 8.6
2023/12/14 17:10:00, 0.0, 8.6
2023/12/14 17:20:00, 0.0, 8.5
2023/12/14 17:30:00, 0.0, 8.4
2023/12/14 17:40:00, 0.0, 8.4
2023/12/14 17:50:00, 0.0, 8.3
2023/12/14 18:00:00, 0.0, 8.2
2023/12/14 18:10:00, 0.0, 8.3
2023/12/14 18:20:00, 0.0, 8.1
2023/12/14 18:30:00, 0.0, 8.3
2023/12/14 18:40:00, 0.0, 8.0
2023/12/14 18:50:00, 0.0, 7.9
2023/12/14 19:00:00, 0.0, 8.2
2023/12/14 19:10:00, 0.0, 7.8
2023/12/14 19:20:00, 0.0, 7.9
2023/12/14 19:30:00, 0.0, 8.1
2023/12/14 19:40:00, 0.0, 7.7
2023/12/14 19:50:00, 0.0, 7.8
2023/12/14 20:00:00, 0.0, 8.1
2023/12/14 20:10:00, 0.0, 7.8
2023/12/14 20:20:00, 0.0, 7.9
2023/12/14 20:30:00, 0.0, 7.7
2023/12/14 20:40:00, 0.0, 7.7
2023/12/14 20:50:00, 0.0, 7.6
2023/12/14 21:00:00, 0.0, 7.4
2023/12/14 21:10:00, 0.0, 7.6
2023/12/14 21:20:00, 0.0, 7.5
2023/12/14 21:30:00, 0.0, 7.5
2023/12/14 21:40:00, 0.0, 7.4
2023/12/14 21:50:00, 0.0, 7.1
2023/12/14 22:00:00, 0.0, 7.6
2023/12/14 22:10:00, 0.0, 7.4
2023/12/14 22:20:00, 0.0, 7.6
2023/12/14 22:30:00, 0.0, 7.6
2023/12/14 22:40:00, 0.0, 7.6
2023/12/14 22:50:00, 0.0, 7.7
2023/12/14 23:00:00, 0.0, 7.5
2023/12/14 23:10:00, 0.0, 7.5
2023/12/14 23:20:00, 0.0, 7.7
2023/12/14 23:30:00, 0.0, 7.7
2023/12/14 23:40:00, 0.0, 8.6
2023/12/14 23:50:00, 0.0, 8.6
